| time (UTC) | temp F | wind direction | speed MPH | gust MPH | rain 1hr in | rain 24hr in | rain mn in | humidity % | barometer mb |
| 20260505024529 | 54 | 299 | 0.0 | 0.0 | 0.01 | 0.02 | 0.02 | 86 | 1014.7 |
| 20260505023028 | 54 | 299 | 0.0 | 0.0 | 0.02 | 0.02 | 0.02 | 85 | 1014.8 |
| 20260505021525 | 54 | 299 | 0.0 | 0.0 | 0.02 | 0.02 | 0.02 | 86 | 1015.1 |
| 20260505020033 | 54 | 299 | 0.0 | 0.0 | 0.02 | 0.02 | 0.02 | 84 | 1015.2 |
| 20260505014531 | 55 | 299 | 0.0 | 0.0 | 0.02 | 0.02 | 0.02 | 83 | 1015.4 |
| 20260505013018 | 55 | 299 | 0.0 | 0.0 | 0.01 | 0.01 | 0.01 | 81 | 1015.6 |
| 20260505011514 | 56 | 299 | 0.0 | 0.0 | 0.00 | 0.00 | 0.00 | 80 | 1015.8 |
| 20260505010009 | 56 | 300 | 0.0 | 0.0 | 0.00 | 0.00 | 0.00 | 78 | 1015.9 |
| 20260505004508 | 57 | 300 | 0.0 | 0.0 | 0.00 | 0.00 | 0.00 | 74 | 1016.2 |
| 20260505003004 | 57 | 300 | 0.0 | 0.0 | 0.00 | 0.00 | 0.00 | 71 | 1016.3 |
| 20260505001502 | 58 | 300 | 0.0 | 0.0 | 0.00 | 0.00 | 0.00 | 66 | 1016.4 |
| 20260505000107 | 59 | 300 | 0.0 | 0.0 | 0.00 | 0.00 | 0.00 | 66 | 1016.5 |
| 20260504234555 | 59 | 300 | 0.0 | 0.0 | 0.00 | 0.00 | 0.00 | 60 | 1016.6 |
| 20260504233057 | 59 | 300 | 0.0 | 6.0 | 0.00 | 0.00 | 0.00 | 59 | 1016.9 |
| 20260504231553 | 60 | 300 | 0.0 | 5.0 | 0.00 | 0.00 | 0.00 | 57 | 1017.0 |
| 20260504230050 | 60 | 311 | 0.0 | 5.0 | 0.00 | 0.00 | 0.00 | 57 | 1017.3 |
| 20260504224549 | 60 | 287 | 1.0 | 5.0 | 0.00 | 0.00 | 0.00 | 58 | 1017.4 |
| 20260504223101 | 60 | 286 | 1.0 | 8.0 | 0.00 | 0.00 | 0.00 | 57 | 1017.4 |
| 20260504221545 | 59 | 286 | 1.0 | 9.0 | 0.00 | 0.00 | 0.00 | 60 | 1017.4 |
| 20260504220041 | 59 | 308 | 0.0 | 3.0 | 0.00 | 0.00 | 0.00 | 61 | 1017.8 |
| 20260504214541 | 59 | 308 | 0.0 | 4.0 | 0.00 | 0.00 | 0.00 | 63 | 1018.0 |
| 20260504213043 | 59 | 309 | 0.0 | 4.0 | 0.00 | 0.00 | 0.00 | 61 | 1018.2 |
| 20260504211609 | 59 | 293 | 0.0 | 6.0 | 0.00 | 0.00 | 0.00 | 62 | 1018.4 |
| 20260504210044 | 59 | 304 | 0.0 | 9.0 | 0.00 | 0.00 | 0.00 | 61 | 1018.4 |
| 20260504204542 | 59 | 300 | 2.0 | 9.0 | 0.00 | 0.00 | 0.00 | 61 | 1018.6 |
| 20260504203039 | 59 | 307 | 5.0 | 11.0 | 0.00 | 0.00 | 0.00 | 61 | 1018.7 |
| 20260504201539 | 59 | 311 | 0.0 | 9.0 | 0.00 | 0.00 | 0.00 | 60 | 1018.7 |
| 20260504200038 | 59 | 316 | 3.0 | 12.0 | 0.00 | 0.00 | 0.00 | 60 | 1018.9 |
| 20260504194542 | 60 | 313 | 4.0 | 10.0 | 0.00 | 0.00 | 0.00 | 58 | 1018.8 |
| 20260504193037 | 60 | 314 | 2.0 | 10.0 | 0.00 | 0.00 | 0.00 | 56 | 1018.6 |
| 20260504191536 | 61 | 322 | 4.0 | 12.0 | 0.00 | 0.00 | 0.00 | 56 | 1018.4 |
| 20260504190036 | 62 | 311 | 3.0 | 12.0 | 0.00 | 0.00 | 0.00 | 54 | 1018.1 |
| 20260504184544 | 63 | 318 | 6.0 | 17.0 | 0.00 | 0.00 | 0.00 | 50 | 1017.7 |
| 20260504183032 | 63 | 333 | 1.0 | 6.0 | 0.00 | 0.00 | 0.00 | 53 | 1017.4 |
| 20260504181535 | 63 | 335 | 0.0 | 0.0 | 0.00 | 0.00 | 0.00 | 63 | 1017.2 |
| 20260504180032 | 63 | 335 | 0.0 | 0.0 | 0.00 | 0.00 | 0.00 | 63 | 1017.0 |
| 20260504174530 | 63 | 335 | 0.0 | 0.0 | 0.00 | 0.00 | 0.00 | 63 | 1016.9 |
| 20260504173030 | 64 | 335 | 0.0 | 0.0 | 0.00 | 0.00 | 0.00 | 62 | 1016.8 |
| 20260504171530 | 64 | 335 | 0.0 | 0.0 | 0.00 | 0.00 | 0.00 | 60 | 1016.7 |
| 20260504081547 | 62 | 82 | 0.0 | 1.0 | 0.00 | 0.00 | 0.00 | 61 | 1018.5 |
| 20260504044528 | 56 | 82 | 0.0 | 0.0 | 0.00 | 0.00 | 0.00 | 76 | 1017.3 |
| 20260504043029 | 56 | 82 | 0.0 | 0.0 | 0.00 | 0.00 | 0.00 | 76 | 1017.2 |
| 20260504041532 | 56 | 82 | 0.0 | 0.0 | 0.00 | 0.00 | 0.00 | 75 | 1017.1 |
| 20260504040025 | 56 | 82 | 0.0 | 0.0 | 0.00 | 0.00 | 0.00 | 76 | 1017.1 |
| 20260504034524 | 56 | 82 | 0.0 | 0.0 | 0.00 | 0.00 | 0.00 | 76 | 1017.0 |
| 20260504033022 | 56 | 82 | 0.0 | 0.0 | 0.00 | 0.00 | 0.00 | 76 | 1017.2 |
| 20260504031522 | 56 | 82 | 0.0 | 0.0 | 0.00 | 0.00 | 0.00 | 75 | 1017.3 |
| 20260504030020 | 56 | 82 | 0.0 | 0.0 | 0.00 | 0.00 | 0.00 | 75 | 1017.1 |